Location: Chuathbaluk
(61.5726°N, 159.2454°W)
Time: 12:06:34
(UTC+00:00)

N. Korean satellite - Pass Details

Date: 30 October 2020
Orbit: 453 x 503 km, 97.2° (Epoch: 04 December)

Event Time Altitude Azimuth Distance (km) Brightness Sun altitude
Rises 16:34:15 0° 16° (NNE) 2,495 10.3 -10.8°
Reaches altitude 10° 16:36:19 10° 17° (NNE) 1,612 9.3 -10.5°
Maximum altitude 16:39:46 84° 106° (ESE) 466 6.5 -10.1°
Drops below altitude 10° 16:43:11 10° 195° (SSW) 1,594 9.2 -9.7°
Sets 16:45:13 0° 196° (SSW) 2,465 10.1 -9.5°
